Regional Weather Roundup
Issued by NWS Grand Forks, ND

Home | Current Version | Previous Version | Text Only | Print | Product List | Glossary Off
Versions: 1 2 3 4 5 6 7 8 9 10 11 12 13 14 15 16 17 18 19 20 21 22 23 24 25 26 27 28 29 30 31 32 33 34 35 36 37 38 39 40 41 42 43 44 45 46 47 48 49 50

467
ASUS43 KFGF 211431
RWRFGF
PRAIRIE TO PINES  WEATHER ROUNDUP
NATIONAL WEATHER SERVICE EASTERN NORTH DAKOTA/GRAND FORKS ND
800 AM CST SAT JAN 21 2017

 **SATELLITE DATA USED TO AUGMENT SKY COVER AT AUTOMATED STATIONS**
 *****  WEATHER ACROSS EASTERN NORTH DAKOTA  *****

CITY           SKY/WX    TMP DP  RH WIND       PRES   REMARKS
GRAND FORKS    CLOUDY    35  32  88 SE6       29.41R
GRAND FRKS AFB CLOUDY    32  32 100 SE8       29.41R WCI  25
DEVILS LAKE    FOG       34  32  93 SE7       29.36S VSB 1/4
FARGO          CLOUDY    38  34  85 E9        29.39S
WAHPETON ARPT  CLOUDY    34  32  93 SE7       29.39S
$$

 ***** WEATHER ACROSS CENTRAL AND WESTERN NORTH DAKOTA  *****

CITY           SKY/WX    TMP DP  RH WIND       PRES   REMARKS
BISMARCK       LGT SNOW  28  26  92 W5        29.34S FOG     WCI  23
MINOT          CLOUDY    28  26  92 SW6       29.32R FOG     WCI  22
JAMESTOWN      FOG       32  32 100 CALM      29.34R VSB 1/4
MINOT AFB      FAIR      27  25  93 CALM      29.32R FOG
GARRISON         N/A     21  19  92 W5        29.32R WCI  15
WILLISTON      CLOUDY    26  24  92 CALM      29.31R
DICKINSON      MOCLDY    27  23  85 NW9       29.28S WCI  18
HETTINGER      MOCLDY    26  23  88 W10       29.32R WCI  16
$$

 *****  OTHER AIRPORT OBSERVATIONS IN OUR AREA  *****

CITY           SKY/WX    TMP DP  RH WIND       PRES   REMARKS
WALHALLA       NOT AVBL
GRAFTON AIRPOR CLOUDY    34  34 100 SE8       29.43S
VALLEY CITY AR FOG       32  32 100 SE7       29.37S VSB 1/4
CANDO          NOT AVBL
CAVALIER APRT  CLOUDY    34  34 100 SE3       29.42S FOG
GWINNER        CLOUDY    34  34 100 E8        29.36S VSB<1/4
SHEYENNE NWR     N/A     33  33 100 SE5       29.95S
ROLLA            N/A    N/A N/A N/A MISG        N/A
 ***** THE ABOVE OBSERVATIONS ARE NON NWS ARE NOT QUALITY
       CONTROLLED AND MAY MIS-REPORT RAIN FOR SNOW...
$$

  *****  WEATHER ACROSS NORTHERN MINNESOTA  *****

CITY           SKY/WX    TMP DP  RH WIND       PRES   REMARKS
FLAG ISLAND    FOG       34  32  93 E8        29.48R VSB 1/2
WARROAD        CLOUDY    34  30  86 E9        29.48R
ROSEAU         CLOUDY    36  30  80 SE8       29.46R
HALLOCK        CLOUDY    36  36 100 SE8       29.43R
THF RVR FALLS  CLOUDY    34  34 100 SE12      29.44R
BAUDETTE       CLOUDY    33  33 100 SE7       29.47S FOG
WASKISH        CLOUDY    34  34 100 SE5       29.47S
CROOKSTON      CLOUDY    36  34  93 SE8       29.43S
STEPHEN NDAWN    N/A     34  34 100 SE9         N/A
GREENBUSH NDAW   N/A     34  34 100 SE5         N/A
$$
  *****  WEATHER ACROSS CENTRAL AND WEST MINNESOTA  *****

CITY           SKY/WX    TMP DP  RH WIND       PRES   REMARKS
FOSSTON        CLOUDY    32  32 100 E12       29.43S WCI  23
BEMIDJI        CLOUDY    32  32 100 E5        29.45S FOG
PARK RAPIDS    FOG       34  32  92 E6        29.42F VSB 1/4
ELBOW LAKE     CLOUDY    33  33  99 SE9       29.40R FOG
WADENA         MIX PCPN  32  32 100 E6        29.42S VSB 1/4
DETROIT LAKES  DRIZZLE   34  34 100 E5        29.42S
MOORHEAD       CLOUDY    36  32  87 E5        29.41R
FERGUS FALLS   CLOUDY    36  36 100 E6        29.43S
MORRIS MN      FOG       34  34 100 E10       29.38S VSB 1/2
STAPLES        FOG       32  32 100 E5        29.43S VSB 1/2
$$
  *****  WEATHER ELSEWHERE ACROSS MINNESOTA  *****

CITY           SKY/WX    TMP DP  RH WIND       PRES   REMARKS
DULUTH         DRZL/FOG  34  34 100 E6        29.48F VSB 1/16
INTRNTL FALLS  CLOUDY    33  32  96 SE8       29.50S FOG
ELY            FOG       34  34 100 CALM      29.51S VSB 3/4
CLOQUET        FOG       34  34 100 E5        29.47S VSB<1/4
WHEATON        CLOUDY    41  41 100 E10       29.41S FOG
BRAINERD       FOG       33  33 100 E3        29.44F VSB 1/4
HIBBING        FOG       32  32 100 E5        29.48F VSB 1/2
ALEXANDRIA     FOG       33  33 100 E10       29.40F VSB 3/4 WCI  25
SAINT CLOUD    FOG       33  33 100 NE6       29.42F VSB 1/4
MINNEAPOLIS    CLOUDY    35  33  92 E6        29.42F FOG
$$

  *****  WEATHER ACROSS SOUTH DAKOTA  *****

CITY           SKY/WX    TMP DP  RH WIND       PRES   REMARKS
SIOUX FALLS    DRZL/FOG  36  36 100 SW5       29.35R VSB 1/4
BROOKINGS      FOG       34  34 100 S7        29.33S VSB 1/4
WATERTOWN      CLOUDY    34  34 100 SE6       29.32S FOG
HURON          CLOUDY    27  26  96 NW7       29.35F WCI  19
SISSETON         N/A     33  33 100 SE7       29.36S
ABERDEEN       CLOUDY    29  26  89 W3        29.35S
MITCHELL       CLOUDY    29  26  89 W9        29.37S WCI  20
PIERRE         CLOUDY    26  25  96 NW7       29.34S WCI  18
MOBRIDGE       LGT SNOW  27  24  89 NW7       29.31R FOG     WCI  19
RAPID CITY     FAIR      28  26  92 NW6       29.34S WCI  22
$$

  *****  SOME WEATHER IN NEARBY STATES *****

CITY           SKY/WX    TMP DP  RH WIND       PRES   REMARKS
GLASGOW MT     FOG       13  11  92 W10       29.35S VSB 1/4 WCI   0
GREAT FALLS MT FAIR      17  13  84 W5        29.34R WCI  10
CHEYENNE WY    FAIR      18  12  77 W7        29.35S WCI   9
SCOTTSBLUFF NE FAIR      18  15  88 N5        29.40R WCI  11
OMAHA NE       CLOUDY    40  36  86 SW10      29.41R FOG
DES MOINES IA  FOG       44  43  96 SW8       29.40S VSB 1/4
DAVENPORT IA   FAIR      43  42  97 S10       29.43S FOG
CHICAGO IL     CLOUDY    48  47  96 S10       29.52S FOG
EAU CLAIRE WI  FOG       34  34 100 NE10      29.44F VSB 3/4
LA CROSSE WI   CLOUDY    39  36  89 E7        29.43F FOG
$$

  *****  SOME NATIONAL WEATHER *****

CITY           SKY/WX    TMP DP  RH WIND       PRES   REMARKS
LA GUARDIA NY  PTSUNNY   46  42  86 SW5       29.88S
RALEIGH NC     FOG       51  51 100 E5        29.92F VSB 1/8
ATLANTA GA     TSTM      58  55  90 NW5G23    29.81S FOG
NEW ORLEANS LA PTSUNNY   60  58  92 E15G22    29.70F
OKLAHOMA CITY  MOCLDY    37  32  82 CALM      29.55R
ALBUQUERQUE NM MOCLDY    38  37  97 S13       29.43F
SALT LAKE CITY LGT SNOW  33  32  96 CALM      29.32R VSB 3/4
LOS ANGELES CA FAIR      49  41  74 NW6       29.77R
BOISE ID       CLOUDY    33  31  92 SW3       29.39R
SEATTLE WA     CLOUDY    42  39  89 E7        29.28R
$$

*** WEATHER ACROSS MANITOBA...SASKATCHEWAN AND ONTARIO ***
                ***ONTARIO***

CITY           SKY/WX    TMP DP  RH WIND       PRES   REMARKS
GERALDTON      FRZ RAIN  32  32 100 SE5       29.63S VSB 1
THUNDER BAY    DRZL/FOG  34  34 100 E7        29.60S VSB 3/4
SIOUX LOOKOUT  FLURRIES  34  34 100 SE3       29.55S
TORONTO        PTSUNNY   37  36  93 NW7       29.78F FOG
BIG TROUT LK   FLURRIES  27  27 100 E5        29.71S WCI  21
PICKLE LAKE    LGT RAIN  32  32 100 E6        29.59S FOG
DRYDEN         LGT RAIN  34  34 100 E6        29.52S
KENORA         FOG       32  32 100 SE8       29.49S VSB 1/2 WCI  25
$$
                *** MANITOBA***

CITY           SKY/WX    TMP DP  RH WIND       PRES   REMARKS
BRANDON        CLOUDY    32  32 100 E6        29.36S FOG
DAUPHIN        FOG       32  32 100 SE7       29.38R VSB 1/2
ISLAND LAKE    FRZ RAIN  32  32 100 E3        29.58  FOG
PILOT MOUND      N/A     32  32 100 SE10        N/A  WCI  24
THE PAS        DRIZZLE   32  32 100 E7        29.43R FOG
THOMPSON       LGT SNOW  28  27  93 E6        29.57F FOG     WCI  22
WINNIPEG       CLOUDY    34  34 100 SE9       29.44S
LYNN LAKE      CLOUDY    27  27 100 E7        29.54S FOG     WCI  19
CHURCHILL      FLURRIES  18  16  93 SE20      29.82R WCI   1
GILLAM         FLURRIES  28  27  93 SE3       29.69S
$$
                ***SASKATCHEWAN***

CITY           SKY/WX    TMP DP  RH WIND       PRES   REMARKS
ESTEVAN        FOG       14  12  92 E3        29.30S VSB 1/8
KINDERSLEY       N/A     23  21  93 N7        29.35S WCI  15
LLOYDMINSTER   FOG       19  18  93 NW8       29.40S VSB 1/2 WCI   9
PRINCE ALBERT  CLOUDY    28  25  86 NE12      29.37S WCI  18
REGINA         FOG       18  18 100 S3        29.29S VSB 1/2
YORKTON        LGT SNOW  28  28 100 SE5       29.32R WCI  23
N. BATTLEFORD  CLOUDY    28 N/A N/A N8        29.39R WCI  20
LA RONGE       LGT SNOW  27  27 100 NE5       29.46R WCI  21
SASKATOON      CLOUDY    27  27 100 NE12      29.36R WCI  16
SWIFT CURRENT  FRZ RAIN  23  23 100 W8        29.30R VSB 1/4 WCI  14
$$
NOTE: THESE ARE AUTOMATED STATIONS WITH LIMITED QUALITY CONTROL
      "FAIR" INDICATES FEW OR NO CLOUDS BELOW 12,000 FEET WITH NO
      SIGNIFICANT WEATHER AND/OR OBSTRUCTIONS TO VISIBILITY.
      SKY/WX - SKY CONDITION AND SIGNIFICANT WEATHER.
      TMP - AIR TEMPERATURE.    DP   - DEWPOINT TEMPERATURE.
      RH  - RELATIVE HUMIDITY.  PRES - PRESSURE.
      HX  - HEAT INDEX.         WCI  - WIND CHILL INDEX.
$




USA.gov is the U.S. government's official web portal to all federal, state and local government web resources and services.